Weather History for KM19 - September, 2012

Change the Weather History Date:

Tuesday, September 18, 2012

  Actual Average (KJBR) Record (KJBR)
Temperature  
Mean Temperature 63 °F 71 °F  
Max Temperature 72 °F 82 °F 99 °F (1931)
Min Temperature 52 °F 60 °F 40 °F (1903)
Degree Days  
Heating Degree Days 2 1  
Month to date heating degree days 1  
Since 1 July heating degree days 1  
Cooling Degree Days 0 6  
Month to date cooling degree days 167  
Year to date cooling degree days 1713  
Growing Degree Days 13 (Base 50)    
Moisture  
Dew Point 53 °F    
Average Humidity 69    
Maximum Humidity 100    
Minimum Humidity 35    
Precipitation  
Precipitation 0.00 in 0.09 in 2.80 in (1964)
Month to date precipitation 1.77  
Year to date precipitation 32.88  
Snow  
Snow 0.00 in 0.00 in - ()
Month to date snowfall 0.0  
Since 1 July snowfall 0.0  
Since 1 September snowfall 0.0  
Snow Depth -    
Sea Level Pressure  
Sea Level Pressure 29.96 in    
Wind  
Wind Speed 10 mph (NNW)    
Max Wind Speed 18 mph    
Max Gust Speed 24 mph    
Visibility 10 miles    
Events      
T = Trace of Precipitation, MM = Missing Value Source: NWS Daily Summary

Daily Weather History Graph

Daily Weather History Graph

Search for Another Location

Airport or City:

Trip Planner

Search our weather history database for the weather conditions in past years. The results will help you decide how hot, cold, wet, or windy it might be!

Date:

Astronomy

Sep. 18, 2012 Rise Set
Actual Time 6:50 AM CDT 7:06 PM CDT
Civil Twilight 6:24 AM CDT 7:32 PM CDT
Nautical Twilight 5:54 AM CDT 8:01 PM CDT
Astronomical Twilight 5:24 AM CDT 8:32 PM CDT
Moon 9:41 AM CDT (9/18) 8:39 PM CDT (9/18)
Length of Visible Light 13h 07m
Length of Day
12h 16m
Waxing Crescent, 9% of the Moon is Illuminated
Sep 18
Waxing Crescent
Sep 22
First Quarter
Sep 29
Full
Oct 8
Last Quarter
Oct 15
New

Hourly Weather History & Observations

Time (CDT) Temp. Dew Point Humidity Pressure Visibility Wind Dir Wind Speed Gust Speed Precip Events Conditions
12:56 AM 66.9 °F 66.9 °F 100% 29.81 in 9.0 mi WNW 3.5 mph - N/A   Clear
1:56 AM 66.9 °F 65.8 °F 96% 29.81 in 8.0 mi WNW 4.6 mph - N/A   Clear
2:56 AM 66.9 °F 66.9 °F 100% 29.81 in 10.0 mi WNW 4.6 mph - N/A   Scattered Clouds
3:56 AM 66.9 °F 64.9 °F 93% 29.82 in 10.0 mi NNW 15.0 mph - N/A   Overcast
4:56 AM 65.8 °F 63.9 °F 93% 29.84 in 10.0 mi NNW 17.3 mph - N/A   Scattered Clouds
5:15 AM 66.2 °F 62.6 °F 88% 29.85 in 10.0 mi NNW 15.0 mph - N/A   Mostly Cloudy
5:56 AM 64.9 °F 61.0 °F 87% 29.88 in 10.0 mi NNW 18.4 mph 24.2 mph N/A   Overcast
6:49 AM 62.6 °F 55.4 °F 77% 29.91 in 10.0 mi NNW 15.0 mph 20.7 mph N/A   Scattered Clouds
6:56 AM 61.9 °F 55.9 °F 81% 29.91 in 10.0 mi North 18.4 mph 23.0 mph N/A   Partly Cloudy
7:56 AM 61.9 °F 52.0 °F 70% 29.94 in 10.0 mi North 17.3 mph 21.9 mph N/A   Overcast
8:56 AM 61.0 °F 45.9 °F 58% 29.97 in 10.0 mi North 12.7 mph - N/A   Mostly Cloudy
9:56 AM 63.0 °F 45.9 °F 54% 30.00 in 10.0 mi North 15.0 mph - N/A   Clear
10:56 AM 65.8 °F 45.9 °F 48% 30.01 in 10.0 mi North 12.7 mph - N/A   Clear
11:56 AM 68.0 °F 45.9 °F 45% 30.02 in 10.0 mi North 17.3 mph 20.7 mph N/A   Clear
12:56 PM 70.0 °F 45.9 °F 42% 30.03 in 10.0 mi NNW 8.1 mph - N/A   Clear
2:56 PM 72.0 °F 45.0 °F 38% 30.01 in 10.0 mi North 10.4 mph - N/A   Clear
3:56 PM 72.0 °F 45.0 °F 38% 30.01 in 10.0 mi North 12.7 mph - N/A   Clear
4:56 PM 72.0 °F 43.0 °F 35% 30.01 in 10.0 mi NNW 15.0 mph 21.9 mph N/A   Clear
5:56 PM 70.0 °F 47.8 °F 45% 30.01 in 10.0 mi North 5.8 mph - N/A   Clear
6:56 PM 63.9 °F 50.9 °F 63% 30.03 in 10.0 mi NNW 3.5 mph - N/A   Clear
7:56 PM 63.9 °F 50.0 °F 61% 30.04 in 10.0 mi Calm Calm - N/A   Clear
8:56 PM 61.9 °F 50.9 °F 67% 30.06 in 10.0 mi NW 3.5 mph - N/A   Clear
10:56 PM 54.0 °F 50.9 °F 89% 30.09 in 10.0 mi NNW 4.6 mph - N/A   Clear
11:56 PM 52.9 °F 50.0 °F 90% 30.10 in 10.0 mi North 3.5 mph - N/A   Clear